IRIDIUM 17 [-]

Last updated on Wed Jun 28 2023 00:03:01 GMT+0000 (Coordinated Universal Time)

1 24870U 97034B 23178.45799639 .00000538 00000+0 17683-3 0 9990 2 24870 86.3983 177.5042 0001940 135.2958 224.8396 14.36506395360075
UTC large
Height (km)
Speed (km/s)
/
Latitude / Longitude
Inclination (degrees)
Orbital Period (minutes)
Azimuth
Elevation
Range (km)
Doppler Factor

Next 0 passes for location: London (51.5072 / 0.1276)

Sorry there are no passes over London.